Flag for U.S.A. Weather past 2 weeks in Newport News, Virginia, U.S.A.

Now
74 °F

Fog.


Feels Like: 71 °F
Forecast: 74 / 86 °F
Wind: 8 mph from East

Location: Newport News / Williamsburg International Airport

Current Time: Jul 4, 2015 at 12:18:07 AM

Latest Report: Jul 3, 2015 at 11:54 PM


Visibility: 5 mi

Pressure: 29.88 "Hg

Humidity: 94%

Dew point: 72 °F

Location of Newport NewsLocation

Historic Weather in Newport News — Graph

°F

Newport News temperature yesterday

Maximum temperature yesterday: 81 °F (at 1:54 PM)
Minimum temperature yesterday: 67 °F (at 4:54 AM)
Average temperature yesterday: 74 °F

Past Weeks' High & Low Weather Summary

 TemperatureHumidityPressure
High98 °F (Jun 20, 4:54 PM)97% (Jun 27, 6:54 AM)30.11 "Hg (Jun 27, 6:54 AM)
Low59 °F (Jun 29, 5:54 AM)37% (Jun 19, 3:54 PM)29.67 "Hg (Jun 28, 2:54 AM)
Average79 °F73%29.93 "Hg
* Reported Jun 18 10:54 PM — Jul 3 10:54 PM, Newport News, Weather by CustomWeather, © 2015

Note: Actual official high and low records may vary slightly from our data, if they occured in-between our weather recording intervals... More about our weather records

Advertising

Newport News weather history for previous 24 hours

 ConditionsComfort  
Time TempWeatherWind HumidityBarometerVisibility
10:54 PM
Fri, Jul 3
73 °FFog.5 mph94%29.90 "Hg5 mi
9:54 PM72 °FLight rain. Fog.7 mph93%29.91 "Hg4 mi
8:54 PM73 °FOvercast.7 mph90%29.91 "Hg7 mi
7:54 PM73 °FRain. Fog.9 mph88%29.92 "Hg4 mi
6:54 PM75 °FLight rain. Broken clouds.15 mph79%29.92 "Hg7 mi
5:54 PM77 °FSunny.13 mph74%29.92 "Hg8 mi
4:54 PM79 °FSunny.10 mph67%29.93 "Hg9 mi
3:54 PM79 °FSunny.13 mph69%29.94 "Hg9 mi
2:54 PM81 °FSunny.7 mph60%29.96 "Hg10 mi
1:54 PM81 °FSunny.9 mph60%29.97 "Hg10 mi
12:54 PM80 °FSunny.8 mph62%29.98 "Hg10 mi
11:54 AM80 °FSunny.7 mph62%29.98 "Hg10 mi
10:54 AM78 °FSunny.6 mph62%29.99 "Hg10 mi
9:54 AM76 °FSunny.7 mph69%29.98 "Hg9 mi
8:54 AM73 °FPartly sunny.5 mph84%29.99 "Hg6 mi
7:54 AM73 °FSunny.3 mph84%29.96 "Hg5 mi
6:54 AM69 °FFog.No wind93%29.96 "Hg4 mi
5:54 AM67 °FFog.6 mph93%29.93 "Hg3 mi
4:54 AM67 °FFog.5 mph97%29.90 "Hg4 mi
3:54 AM68 °FFog.6 mph93%29.90 "Hg5 mi
2:54 AM69 °FFog.3 mph93%29.90 "Hg4 mi
1:54 AM69 °FFog.No wind96%29.91 "Hg4 mi
12:54 AM70 °FFog.5 mph93%29.91 "Hg5 mi
Weather by CustomWeather, © 2015

See weather overviewHow to use our weather pages